This is the latest recevied weather packets stored in our database for station/object K6GMW. If no packets are shown the sender has not sent any weather packets the latest 10 day(s).
| Time | Temp. | Humidity | Pressure | Rain* | Wind** | Luminosity | Snow |
|---|---|---|---|---|---|---|---|
| 1777746578 | 22.78° C | 46% | 1022 hPa | 0 mm | - | 1108 W/m² | - |
| 1777746273 | 22.78° C | 42% | 1021.9 hPa | 0 mm | - | 1064 W/m² | - |
| 1777745970 | 22.78° C | 41% | 1022 hPa | 0 mm | - | 1090 W/m² | - |
| 1777745669 | 22.78° C | 39% | 1021.9 hPa | 0 mm | - | 354 W/m² | - |
| 1777745367 | 22.22° C | 45% | 1022 hPa | 0 mm | - | 1122 W/m² | - |
| 1777745064 | 21.67° C | 47% | 1022.4 hPa | 0 mm | - | 1083 W/m² | - |
| 1777744760 | 21.67° C | 50% | 1022.2 hPa | 0 mm | - | 1076 W/m² | - |
| 1777744460 | 21.67° C | 44% | 1022.3 hPa | 0 mm | - | 1135 W/m² | - |
| 1777744157 | 21.67° C | 51% | 1022.4 hPa | 0 mm | - | 1079 W/m² | - |
| 1777743854 | 21.11° C | 45% | 1022.2 hPa | 0 mm | - | 1123 W/m² | - |
| 1777743550 | 21.67° C | 47% | 1022.4 hPa | 0 mm | - | 282 W/m² | - |
| 1777743247 | 21.11° C | 50% | 1022.5 hPa | 0 mm | - | 1054 W/m² | - |
| 1777742946 | 21.11° C | 50% | 1022.5 hPa | 0 mm | - | 221 W/m² | - |
| 1777742642 | 21.67° C | 49% | 1022.6 hPa | 0 mm | - | 218 W/m² | - |
| 1777742338 | 21.67° C | 49% | 1022.7 hPa | 0 mm | - | 1090 W/m² | - |
| 1777742034 | 22.22° C | 47% | 1022.5 hPa | 0 mm | - | 1041 W/m² | - |
| 1777741732 | 21.67° C | 49% | 1022.6 hPa | 0 mm | - | 1012 W/m² | - |
| 1777741428 | 21.67° C | 53% | 1022.5 hPa | 0 mm | - | 1006 W/m² | - |
| 1777741124 | 21.67° C | 47% | 1022.6 hPa | 0 mm | - | 988 W/m² | - |
| 1777740822 | 22.22° C | 46% | 1022.6 hPa | 0 mm | - | 974 W/m² | - |
| 1777740518 | 22.22° C | 48% | 1022.6 hPa | 0 mm | - | 968 W/m² | - |
| 1777740216 | 21.67° C | 50% | 1022.4 hPa | 0 mm | - | 962 W/m² | - |
| 1777739911 | 21.67° C | 48% | 1022.5 hPa | 0 mm | - | 942 W/m² | - |
| 1777739608 | 21.11° C | 53% | 1022.6 hPa | 0 mm | - | 926 W/m² | - |
| 1777739306 | 21.67° C | 50% | 1022.7 hPa | 0 mm | - | 939 W/m² | - |
* Rain latest hour (hover to see other rain measurements)
** Current wind speed in m/s (hover to see current wind gust speed)